Wind_Speed
33 34 36 35 35 36 38 38 46 46 45 42 41 42 42 42 40 39 38 35 35 35 35 37 37 42 42 41 41 42 42 41 41 41 41 41 45 47 46 46 46 47 45 44 43 44 44
29 32 33 33 34 35 35 38 41 44 43 41 42 42 43 43 41 41 40 37 36 36 37 37 39 41 43 42 42 41 42 42 44 43 42 44 46 47 48 47 48 43 40 43 43 42 39
28 31 33 32 33 34 35 36 38 41 41 41 43 43 42 42 43 41 41 39 40 38 38 38 39 41 42 42 43 43 41 42 43 43 42 44 45 46 46 47 44 42 39 41 42 39 37
18 24 27 29 30 30 32 34 36 38 39 42 46 48 48 46 44 44 43 43 43 43 41 40 42 42 42 45 44 45 44 42 42 43 43 44 46 47 47 47 44 41 40 39 40 41 38
22 24 23 27 30 30 31 34 37 39 42 45 50 52 52 52 50 50 49 48 45 45 44 44 42 44 45 45 46 47 45 44 44 44 45 45 46 48 48 47 44 41 40 40 42 40 41
26 26 27 30 30 32 35 34 36 42 47 51 55 56 57 57 56 56 53 52 49 47 46 47 44 46 46 47 46 46 46 46 47 47 47 46 47 46 46 47 43 41 39 42 42 37 37
30 26 29 32 30 29 31 33 40 45 50 54 60 63 64 63 61 57 54 53 48 48 48 47 45 45 46 46 47 47 48 45 51 50 47 48 48 45 43 46 43 39 36 34 37 33 32
31 27 27 26 30 32 33 33 35 34 39 50 58 61 60 58 57 55 52 48 50 51 49 45 43 44 46 48 46 44 49 50 48 47 46 48 49 45 46 46 42 39 32 31 31 28 32
36 36 32 30 27 31 30 28 27 21 17 22 34 42 37 39 47 43 44 49 48 46 42 41 42 43 42 41 44 45 45 48 50 49 46 48 47 44 43 39 37 35 30 30 31 29 30
42 40 39 36 32 28 28 24 19 13 8 13 25 34 37 33 33 36 38 42 40 40 39 39 40 41 34 35 36 37 41 41 43 40 41 45 45 42 37 34 34 36 35 36 35 35 34
46 44 41 40 35 32 29 25 19 14 12 15 20 27 26 29 32 36 39 36 36 37 37 38 36 36 36 37 44 36 36 38 41 37 39 49 45 40 37 42 36 41 38 40 41 35 30
49 47 45 43 40 35 33 30 24 19 18 18 20 26 28 29 33 39 39 35 37 34 36 37 39 39 40 42 45 40 38 37 40 40 40 45 44 43 51 46 44 46 40 38 35 34 31
54 52 49 47 44 41 38 34 31 25 22 23 26 26 31 29 29 33 34 35 36 35 40 38 41 42 44 46 46 43 42 41 43 38 40 44 41 41 44 52 52 43 37 32 32 32 28
56 57 56 52 50 46 43 39 37 33 29 26 28 28 30 30 32 32 31 32 32 37 40 38 40 41 45 47 47 43 42 43 43 38 37 37 40 40 40 41 35 34 36 29 29 30 28
62 59 59 57 55 52 49 45 42 39 37 32 30 29 29 31 35 34 32 31 35 38 37 32 34 35 39 43 42 40 41 44 39 37 36 36 40 37 35 34 36 32 32 32 29 29 22
66 65 63 62 59 57 54 52 48 46 43 40 38 33 29 32 31 30 29 29 32 31 30 27 26 28 32 36 38 37 36 40 42 37 35 35 41 36 35 33 35 33 33 30 27 21 20
70 69 69 67 64 62 59 57 56 53 50 47 44 41 37 36 33 32 31 33 32 27 24 22 26 28 27 28 32 32 34 42 43 38 35 35 37 38 36 33 37 35 31 29 23 23 21
74 73 72 72 71 69 66 62 60 58 57 54 51 48 45 42 39 37 37 37 32 25 23 23 24 24 21 21 25 27 34 41 42 37 36 37 37 37 36 37 35 35 31 27 24 25 24
70 77 77 76 75 76 73 70 67 66 64 60 58 55 52 47 44 43 41 40 36 33 32 30 26 25 22 19 21 22 29 35 34 35 33 34 31 36 32 32 34 36 31 27 23 25 23
72 71 73 78 79 79 79 76 73 69 70 68 64 61 58 56 52 48 45 46 45 41 37 35 31 25 23 21 19 22 25 33 35 34 32 25 25 31 31 35 30 29 30 28 28 27 23
77 74 74 74 78 82 81 80 79 75 75 72 70 67 64 61 58 55 53 51 49 46 39 37 35 31 26 22 21 24 24 24 30 23 19 16 22 27 33 28 24 29 32 29 31 28 22
72 79 77 76 76 78 85 84 81 81 79 78 75 73 71 68 63 61 59 57 52 50 45 40 39 36 32 27 26 29 24 22 22 21 19 20 21 27 30 22 25 31 31 32 33 27 24
58 65 73 80 78 78 81 84 87 84 83 81 79 77 76 73 70 67 63 61 58 58 54 48 46 42 37 33 30 32 26 25 25 25 26 22 23 25 26 25 31 33 34 34 33 29 23
50 54 59 65 75 82 81 82 85 88 87 84 83 82 80 79 76 72 68 67 63 62 61 58 52 49 44 41 37 37 31 28 26 26 27 25 25 26 27 29 31 34 35 35 34 29 27
48 47 48 51 59 70 80 87 85 85 87 87 87 85 85 83 80 79 75 72 70 70 69 65 59 54 51 49 47 41 38 32 32 31 30 28 28 28 29 31 34 37 35 34 33 31 32
45 44 45 47 50 57 66 75 83 89 87 84 87 91 88 87 84 80 76 78 75 75 74 71 67 62 59 56 53 45 43 39 36 37 36 34 33 33 33 32 35 36 31 30 32 32 34
43 42 41 42 46 50 56 63 71 79 87 90 88 86 89 90 88 87 85 85 82 80 78 75 70 66 66 63 60 54 50 48 43 41 42 41 40 39 38 34 36 38 33 31 32 32 35
40 40 38 38 41 44 48 53 61 69 75 83 89 89 86 84 89 90 89 88 84 83 83 79 77 71 69 68 67 63 58 55 50 46 46 46 43 41 42 40 39 42 36 35 36 34 39
37 35 34 34 34 36 40 45 52 59 66 72 79 83 84 84 83 86 89 86 86 88 88 87 83 78 74 74 72 69 67 64 60 56 52 50 46 42 40 42 43 46 42 42 43 44 44
Wind_Direction
217 217 219 221 224 223 226 225 222 222 222 223 225 227 226 227 227 232 233 235 238 237 237 235 236 232 233 233 233 232 236 237 236 238 241 243 249 254 258 262 267 271 278 281 286 289 291
212 216 212 213 215 218 219 221 224 224 225 225 226 226 228 228 229 230 236 235 240 238 237 234 235 233 234 232 234 236 237 237 239 240 243 246 250 257 261 264 267 272 277 282 284 287 290
211 211 211 211 213 216 217 219 221 224 224 226 229 228 229 229 229 230 234 236 239 240 237 236 234 235 234 233 234 235 237 239 241 243 245 249 253 256 260 265 268 273 278 281 286 286 287
212 206 205 208 210 212 216 219 222 226 231 233 233 232 234 233 235 234 236 238 240 241 239 238 236 236 234 234 234 235 236 240 242 245 247 250 253 256 260 263 267 272 276 281 282 284 285
207 210 218 220 220 219 223 226 230 236 240 242 239 237 236 236 238 238 238 241 242 239 240 238 236 237 238 237 235 236 237 241 242 244 248 252 256 259 262 263 267 271 274 274 277 281 286
215 218 226 228 224 226 231 235 245 250 253 254 248 242 238 238 237 237 238 241 242 241 238 237 237 235 239 237 239 239 237 239 243 245 249 255 257 260 264 266 267 270 271 276 278 281 282
221 235 237 236 231 235 240 247 253 258 256 250 243 241 240 239 239 239 239 241 239 235 237 236 235 236 242 243 239 237 237 241 241 247 252 256 257 259 265 267 266 270 272 273 278 281 279
225 228 235 242 236 238 243 250 257 266 255 242 237 237 240 239 238 237 237 234 231 232 231 232 233 233 238 242 242 240 240 240 242 245 251 254 257 259 260 268 270 266 265 268 275 277 278
224 223 232 240 242 236 241 252 269 281 256 228 220 218 215 220 223 217 225 224 227 229 229 231 229 230 232 236 240 240 241 243 246 246 247 249 254 257 261 261 264 264 265 265 273 272 272
230 236 240 238 237 237 241 250 265 280 250 221 208 202 200 210 208 207 217 219 216 222 224 224 227 229 231 234 240 236 242 245 246 248 248 251 251 255 256 255 256 260 260 265 274 273 268
230 233 237 239 242 236 240 245 252 255 234 218 217 207 205 206 208 207 216 205 213 221 226 224 227 230 230 232 238 238 240 243 246 244 246 247 251 253 255 253 254 259 261 264 267 271 280
233 234 234 235 238 237 234 240 242 239 232 224 217 211 208 204 201 208 207 207 218 222 227 230 228 234 233 235 242 246 246 247 248 247 246 246 250 247 247 255 257 262 266 266 259 265 274
235 235 235 235 236 235 233 232 235 238 231 223 220 215 209 210 206 211 211 215 222 226 232 233 237 237 239 242 243 245 248 247 247 247 246 246 249 250 249 250 255 259 264 266 259 259 269
232 234 236 235 235 233 231 231 230 232 233 227 221 219 218 212 220 222 219 221 227 233 237 236 241 246 249 246 245 243 247 250 247 243 244 242 246 246 247 247 250 257 266 258 251 260 269
230 231 232 234 234 233 233 230 231 229 231 228 227 223 222 220 223 226 226 227 227 233 236 234 235 239 247 246 244 242 240 243 248 245 241 234 236 243 244 245 246 250 248 246 249 261 254
232 230 230 232 232 231 231 232 229 231 229 229 229 223 219 221 217 216 215 220 221 222 226 224 230 237 244 243 241 232 231 234 240 242 241 237 241 242 243 240 244 244 245 253 258 247 231
231 231 229 229 231 231 231 231 232 230 232 230 230 227 222 220 216 213 215 220 218 219 222 215 220 235 244 252 245 229 227 233 238 237 236 238 240 242 243 239 244 244 242 249 247 225 211
232 231 231 229 228 230 230 230 230 232 230 231 230 230 227 224 223 221 224 224 225 221 223 224 224 237 242 251 251 236 223 233 240 242 234 235 236 245 245 243 245 247 243 240 228 215 205
235 234 232 231 230 229 229 231 231 231 232 230 230 229 228 226 226 228 231 234 235 230 230 232 229 228 234 242 257 243 225 226 238 247 247 240 235 242 239 241 238 243 245 227 215 208 203
239 236 235 233 231 230 229 229 230 230 231 231 230 229 229 229 226 227 230 235 237 236 234 240 241 236 231 231 240 245 229 230 230 233 243 248 244 243 245 242 232 231 231 209 206 197 196
239 237 237 234 231 230 230 229 229 229 230 230 231 231 231 231 230 229 230 233 236 236 233 235 240 239 237 231 228 233 234 226 232 237 235 217 216 227 239 241 221 221 223 201 202 197 188
237 236 237 235 234 233 230 229 229 229 230 230 231 232 233 232 231 231 233 233 235 238 236 230 236 236 235 230 226 236 229 232 233 236 230 226 226 233 234 223 208 214 215 199 199 186 196
240 239 237 236 236 234 231 231 229 228 229 229 229 231 233 232 232 231 231 233 234 236 235 232 233 234 235 233 226 233 232 226 225 229 230 223 218 229 223 197 202 209 206 196 205 193 202
241 241 239 237 236 235 233 232 231 230 229 227 228 229 231 232 232 232 232 233 233 236 236 233 229 231 231 236 232 229 234 227 224 221 228 224 223 222 219 202 205 215 205 200 204 200 201
242 242 241 238 236 234 234 232 230 230 230 230 228 228 229 230 233 234 233 232 233 235 235 236 232 229 228 228 232 228 231 230 223 220 226 224 222 222 208 197 207 211 205 205 208 208 208
246 245 244 240 236 234 233 232 231 230 229 229 230 229 228 229 230 233 233 233 234 235 235 235 235 233 232 229 229 222 228 230 224 221 227 224 219 218 206 198 212 219 214 206 206 206 209
249 249 248 246 242 235 231 229 228 228 228 228 229 229 230 229 228 229 231 233 236 237 235 235 233 233 234 231 230 227 223 225 225 220 223 226 219 217 212 206 210 223 214 210 205 207 207
249 251 251 246 244 239 233 226 224 224 225 226 227 229 230 230 230 230 231 233 235 237 237 236 235 232 233 233 233 230 226 225 228 223 220 225 227 220 219 213 216 221 214 210 209 209 211
248 251 251 251 243 234 227 222 219 219 221 223 224 227 229 229 231 231 231 231 232 234 235 236 237 234 231 232 234 233 230 225 225 227 224 226 226 225 219 218 216 220 217 211 212 211 210
Height
10762 10767 10773 10779 10786 10792 10798 10803 10810 10816 10823 10828 10832 10837 10842 10848 10852 10856 10861 10865 10869 10872 10875 10877 10879 10881 10886 10891 10894 10898 10903 10906 10909 10911 10914 10917 10918 10918 10920 10922 10925 10925 10932 10930 10928 10925 10926
10757 10762 10767 10773 10779 10785 10791 10796 10803 10809 10815 10820 10825 10830 10835 10841 10845 10849 10854 10858 10862 10866 10869 10871 10873 10875 10880 10885 10888 10892 10895 10899 10902 10904 10908 10909 10910 10911 10913 10914 10916 10922 10925 10923 10921 10920 10920
10753 10757 10762 10768 10774 10779 10785 10790 10796 10802 10808 10813 10818 10822 10828 10833 10838 10842 10847 10851 10855 10859 10862 10864 10866 10868 10874 10878 10881 10885 10889 10892 10895 10898 10901 10902 10904 10904 10906 10905 10910 10914 10918 10913 10913 10911 10914
10750 10754 10759 10764 10770 10775 10780 10785 10791 10796 10801 10805 10809 10814 10819 10824 10829 10834 10838 10843 10847 10850 10854 10857 10859 10863 10867 10870 10874 10878 10882 10886 10888 10890 10893 10895 10896 10897 10898 10900 10904 10909 10910 10910 10906 10903 10904
10747 10752 10756 10761 10765 10770 10775 10779 10784 10788 10793 10796 10799 10803 10809 10814 10819 10824 10829 10833 10838 10842 10845 10849 10853 10856 10859 10863 10866 10870 10876 10879 10882 10884 10886 10888 10889 10889 10890 10894 10899 10902 10903 10902 10899 10898 10895
10744 10748 10752 10756 10760 10764 10768 10772 10775 10778 10781 10783 10786 10790 10796 10802 10807 10813 10819 10824 10829 10834 10837 10841 10845 10849 10851 10855 10859 10864 10868 10871 10875 10876 10880 10882 10881 10883 10885 10887 10893 10894 10896 10892 10891 10893 10891
10739 10744 10747 10751 10754 10758 10761 10764 10766 10766 10765 10765 10769 10774 10780 10788 10795 10802 10809 10814 10819 10825 10829 10833 10837 10841 10844 10847 10852 10855 10859 10863 10866 10870 10875 10874 10873 10879 10879 10877 10885 10889 10888 10886 10883 10884 10883
10731 10736 10741 10744 10746 10750 10754 10755 10755 10752 10747 10747 10751 10758 10766 10774 10782 10791 10796 10803 10807 10812 10817 10823 10829 10832 10835 10838 10842 10849 10851 10855 10860 10863 10867 10865 10867 10873 10872 10872 10876 10879 10882 10882 10877 10881 10877
10726 10730 10733 10737 10740 10743 10746 10747 10745 10741 10736 10735 10740 10747 10757 10765 10772 10780 10785 10791 10798 10804 10811 10816 10820 10824 10826 10831 10834 10840 10844 10847 10850 10855 10859 10859 10861 10864 10866 10868 10867 10869 10874 10876 10875 10875 10874
10718 10722 10725 10729 10732 10736 10739 10739 10738 10735 10733 10735 10740 10745 10749 10758 10766 10773 10777 10784 10792 10798 10804 10808 10812 10816 10823 10825 10829 10832 10835 10840 10843 10847 10852 10851 10855 10856 10860 10861 10863 10863 10867 10868 10870 10869 10869
10708 10713 10716 10721 10725 10729 10731 10733 10734 10732 10733 10735 10739 10744 10749 10754 10760 10766 10771 10781 10786 10791 10797 10802 10806 10810 10816 10819 10815 10827 10831 10834 10834 10839 10846 10844 10847 10851 10853 10850 10857 10853 10861 10862 10863 10863 10862
10698 10702 10707 10712 10716 10721 10724 10727 10730 10730 10731 10732 10736 10742 10747 10751 10756 10759 10767 10776 10780 10787 10789 10794 10800 10802 10809 10810 10811 10819 10824 10827 10828 10832 10837 10835 10837 10845 10845 10845 10847 10847 10854 10856 10857 10857 10855
10686 10691 10696 10701 10706 10711 10716 10720 10724 10726 10727 10729 10733 10737 10742 10747 10751 10755 10763 10769 10773 10779 10779 10789 10791 10796 10799 10802 10807 10812 10814 10818 10820 10826 10828 10828 10833 10835 10837 10837 10837 10842 10847 10850 10851 10850 10851
10672 10678 10685 10691 10696 10701 10706 10711 10716 10720 10723 10725 10728 10732 10736 10743 10746 10751 10758 10763 10768 10767 10772 10780 10783 10786 10787 10792 10797 10805 10807 10809 10811 10817 10820 10823 10823 10825 10827 10828 10834 10839 10840 10841 10843 10845 10845
10656 10663 10670 10677 10684 10689 10695 10701 10707 10712 10716 10721 10723 10726 10730 10736 10739 10744 10750 10755 10755 10760 10767 10772 10775 10777 10777 10781 10787 10795 10799 10798 10804 10807 10811 10815 10813 10818 10820 10825 10828 10832 10832 10832 10835 10837 10840
10640 10647 10654 10662 10669 10677 10684 10690 10696 10702 10707 10712 10716 10721 10726 10727 10733 10738 10744 10747 10749 10755 10760 10766 10769 10770 10769 10773 10778 10784 10788 10790 10792 10799 10803 10808 10805 10811 10814 10819 10821 10824 10825 10828 10830 10832 10835
10621 10629 10637 10646 10655 10662 10670 10678 10684 10690 10697 10703 10708 10713 10718 10723 10728 10734 10738 10740 10744 10751 10756 10761 10762 10763 10765 10767 10770 10777 10780 10779 10782 10790 10796 10799 10801 10805 10809 10812 10813 10817 10821 10822 10825 10827 10831
10602 10610 10619 10629 10637 10645 10654 10663 10670 10677 10684 10691 10698 10703 10709 10716 10722 10727 10731 10735 10740 10747 10752 10755 10758 10759 10761 10762 10764 10769 10773 10773 10776 10783 10788 10789 10795 10798 10801 10804 10808 10811 10814 10817 10820 10825 10829
10583 10590 10600 10610 10618 10627 10637 10647 10655 10662 10669 10678 10686 10692 10699 10706 10713 10719 10724 10729 10735 10741 10745 10747 10751 10754 10757 10758 10760 10762 10766 10768 10774 10776 10781 10785 10791 10789 10795 10798 10801 10804 10808 10814 10819 10823 10827
10562 10571 10580 10589 10598 10608 10618 10629 10638 10646 10653 10663 10672 10680 10688 10694 10703 10710 10715 10717 10722 10729 10738 10741 10744 10749 10751 10753 10755 10756 10759 10764 10767 10770 10774 10779 10783 10785 10787 10789 10794 10798 10801 10807 10813 10818 10823
10542 10550 10559 10568 10577 10588 10598 10609 10618 10627 10636 10647 10656 10666 10673 10681 10692 10698 10702 10707 10711 10719 10729 10736 10739 10743 10747 10750 10751 10751 10754 10760 10763 10767 10770 10774 10778 10780 10779 10783 10789 10793 10794 10802 10808 10813 10819
10519 10528 10538 10547 10556 10567 10577 10585 10598 10608 10617 10629 10640 10649 10658 10666 10678 10684 10692 10699 10706 10710 10718 10726 10730 10734 10739 10743 10746 10745 10751 10756 10761 10764 10767 10769 10773 10775 10775 10778 10782 10785 10790 10797 10803 10810 10812
10499 10506 10516 10525 10535 10545 10556 10566 10578 10586 10598 10610 10621 10632 10640 10651 10660 10668 10678 10685 10694 10698 10705 10713 10720 10725 10730 10735 10739 10740 10745 10749 10754 10758 10761 10764 10766 10769 10770 10774 10777 10779 10783 10791 10798 10804 10811
10481 10486 10494 10503 10512 10522 10532 10544 10555 10564 10576 10590 10601 10612 10622 10632 10642 10653 10664 10671 10679 10683 10690 10697 10706 10713 10721 10726 10730 10733 10738 10744 10748 10751 10755 10760 10762 10763 10765 10770 10774 10774 10781 10786 10792 10799 10804
10463 10469 10476 10482 10490 10497 10506 10518 10531 10542 10554 10568 10581 10592 10603 10613 10624 10636 10646 10655 10662 10667 10673 10683 10694 10702 10709 10715 10719 10725 10731 10737 10742 10745 10747 10753 10757 10759 10761 10765 10768 10771 10778 10785 10790 10794 10796
10448 10453 10457 10463 10469 10475 10483 10493 10505 10519 10531 10546 10558 10569 10581 10594 10607 10619 10629 10637 10644 10650 10657 10667 10680 10691 10697 10704 10709 10717 10723 10728 10733 10736 10740 10746 10750 10754 10758 10764 10767 10770 10776 10780 10784 10789 10792
10433 10437 10442 10446 10450 10455 10462 10471 10482 10494 10508 10522 10534 10547 10561 10575 10589 10598 10607 10615 10624 10632 10641 10650 10664 10677 10684 10691 10699 10706 10713 10717 10721 10729 10732 10736 10743 10747 10752 10759 10764 10765 10772 10776 10780 10782 10784
10420 10423 10426 10430 10433 10437 10443 10451 10461 10473 10486 10500 10513 10526 10541 10555 10566 10577 10587 10598 10607 10615 10624 10635 10644 10660 10670 10677 10685 10694 10702 10708 10714 10720 10725 10728 10733 10740 10744 10752 10757 10758 10765 10770 10773 10776 10777
10408 10410 10413 10416 10418 10422 10428 10436 10446 10458 10470 10482 10495 10508 10522 10534 10543 10555 10570 10580 10586 10593 10601 10611 10623 10639 10653 10660 10670 10678 10688 10695 10703 10708 10715 10721 10726 10731 10737 10744 10748 10751 10755 10759 10762 10766 10770